Date,TemperatureHighF,TemperatureAvgF,TemperatureLowF,DewpointHighF,DewpointAvgF,DewpointLowF,HumidityHigh,HumidityAvg,HumidityLow,PressureMaxIn,PressureMinIn,WindSpeedMaxMPH,WindSpeedAvgMPH,GustSpeedMaxMPH,PrecipitationSumIn
2013-1-2,32,30,28,21,19,16,70,63,56,30.21,30.05,36,22,36,0.00
2013-1-3,34,26,19,25,15,4,74,63,54,30.27,30.11,39,17,39,0.00
2013-1-4,38,36,34,29,26,23,74,68,60,30.11,29.96,44,26,46,0.00
2013-1-5,42,37,34,31,27,24,82,65,53,30.32,30.00,38,16,39,0.00
2013-1-6,42,37,34,35,32,25,92,82,69,30.29,30.01,30,10,32,0.00
2013-1-7,41,38,33,33,30,24,90,71,56,30.46,30.06,26,11,27,0.00
2013-1-8,45,40,34,37,34,29,91,80,66,30.50,30.38,30,10,30,0.00
2013-1-9,50,41,34,42,36,31,92,83,70,30.46,30.12,41,10,42,0.00
2013-1-10,46,43,38,37,31,26,73,63,53,30.59,30.19,39,20,41,0.00
2013-1-11,44,39,34,43,34,27,96,83,70,30.59,30.19,18,6,18,0.15
2013-1-12,45,44,41,44,43,41,98,97,95,30.21,30.12,20,6,21,0.22
2013-1-13,48,43,39,48,42,38,99,98,98,30.22,30.05,14,3,14,0.01
2013-1-14,50,46,38,49,43,32,99,90,56,30.31,29.99,24,11,24,0.01
2013-1-15,39,38,35,33,31,28,91,77,66,30.38,30.25,19,8,22,0.11
2013-1-16,40,36,34,37,34,29,100,94,72,30.28,29.83,29,-7,29,0.45
2013-1-17,41,39,33,34,30,19,78,70,56,30.14,30.02,30,3,30,0.00
2013-1-18,33,28,24,22,12,3,64,51,36,30.56,30.06,35,-2,35,0.00
2013-1-19,45,41,28,38,32,16,80,71,57,30.51,29.99,43,17,47,0.00
2013-1-20,52,44,33,38,31,17,80,61,42,30.04,29.70,51,13,51,0.00
2013-1-21,33,30,27,29,20,12,95,69,47,30.18,29.85,31,-2,37,0.00
2013-1-22,29,22,16,24,9,1,86,56,43,30.22,29.84,42,13,42,0.00
2013-1-23,18,16,14,6,3,-2,70,55,43,30.32,30.21,39,8,39,0.00
2013-1-24,22,18,12,8,4,-1,73,56,41,30.43,30.24,47,18,48,0.00
2013-1-25,24,20,16,20,10,3,92,65,49,30.48,30.13,42,7,47,0.00
2013-1-26,26,22,17,19,11,6,90,65,49,30.40,30.11,40,6,40,0.00
2013-1-27,33,27,20,15,9,3,74,48,31,30.57,30.40,36,4,36,0.00
2013-1-28,35,31,28,34,24,7,96,77,41,30.56,30.06,14,-8,14,0.08
2013-1-29,40,36,34,38,34,32,95,91,82,30.25,30.06,14,-9,15,0.08
2013-1-30,56,50,40,54,49,38,100,97,88,30.19,29.51,47,8,50,0.00
2013-1-31,56,43,32,54,34,17,98,71,49,29.77,29.09,57,20,61,0.01
2013-2-1,32,29,26,20,15,9,74,55,46,30.25,29.76,56,14,57,0.00
2013-2-2,30,27,24,24,16,10,92,64,49,30.37,30.14,40,9,40,0.00
2013-2-3,31,28,23,23,20,17,89,73,60,30.14,29.81,27,-3,27,0.00
2013-2-4,31,29,26,23,16,11,79,58,45,30.05,29.84,43,14,43,0.00
2013-2-5,30,28,27,26,24,15,93,83,55,30.08,29.98,24,-9,24,0.00
2013-2-6,38,33,28,29,24,5,91,70,34,30.40,29.98,32,3,32,0.00
2013-2-7,32,29,25,23,13,3,70,53,34,30.59,30.40,26,-7,30,0.00
2013-2-8,34,32,31,32,29,20,97,87,64,30.47,29.97,36,-24,36,0.03
2013-4-8,65,54,50,47,46,43,88,73,50,30.09,30.04,11,5,11,0.00
2013-4-9,70,57,46,52,46,42,96,71,37,30.08,29.90,36,3,36,0.00
2013-4-10,60,50,44,52,46,43,96,87,75,30.04,29.84,39,-3,39,0.13
2013-4-11,56,47,43,50,44,40,97,89,79,30.12,29.83,23,-3,24,0.16
2013-4-12,44,41,39,40,39,36,98,92,74,30.12,29.75,43,3,43,0.46
2013-4-13,52,45,39,43,39,36,97,80,55,29.99,29.73,24,-1,24,0.01
2013-4-14,53,49,44,43,37,30,85,64,51,30.25,29.98,37,4,38,0.00
2013-4-15,50,46,41,43,37,31,91,71,57,30.43,30.25,15,-5,16,0.00
2013-4-16,56,51,45,51,47,41,91,84,78,30.43,30.16,37,4,37,0.00
2013-4-17,63,55,49,51,44,36,100,69,38,30.34,30.13,31,-1,34,0.00
2013-4-18,53,49,43,51,43,38,94,81,59,30.42,30.16,24,-2,24,0.00
2013-4-19,64,58,53,62,57,51,100,96,88,30.16,29.71,50,8,53,0.00
2013-4-20,60,54,44,59,53,44,98,97,91,29.90,29.67,57,-3,57,0.08